Showing default

HJ-2B, 46479

Orbit data source: Space-Track

HJ-2B, 46479 is a payload satellite owned by CRESDA (CN) in SSO that was launched on Sun, 27 Sep 2020 UTC via a CHANG ZHENG 4B launch vehicle from the Taiyaun Space Center, China (TSC). Payload-class satellites include a variety of spacecraft equipped with specific instruments for various scientific and technological missions. These include communications satellites like Starlink; space stations such as the ISS; scientific satellites like the Hubble; Earth observation satellites from companies like Planet Labs, Umbra, and HawkEye 360; GPS; miniature CubeSats for education and research; and military/defense satellites.

Loading next visibility...
Identifier
46479, 2020-067B
Orbit
SSO
Country
Flag of CNCN / PRC
Related business
Manufacturer
DFH
Mission
Operational Civil Science
Bus & Motor
CAST-2000, Unknown motor
Mass
510 kg wet, 510 kg dry
Launch date (UTC)
2020-09-27 (5 years ago)
Launch vehicle
CHANG ZHENG 4B
Launch site
Taiyaun Space Center, China (TSC)
Object type
Payload
Rocket body
Debris
Shape & HBR
Box + 2 Pan, Unknown HBR
Radar Cross Section
2.715 m², Large (>1 m²)

Expand to show TLE details & history
Last TLE update: 12 hours ago

TLE from 12 hours ago
0 HJ-2B
1 46479U 20067B   25261.25241792  .00000768  00000-0  11757-3 0  9998
2 46479  97.9132 341.5200 0001843 139.1517 220.9831 14.76476004268135
Epoch: 2025-09-18T06:03Z
TLE epoch observation values (Epoch: 2025-09-18T06:03:28.908Z)
Latitude
-0.00005°
Longitude
-106.76712°
Altitude
644.463 km
Speed
7.535 km/s
True Right ascension
22h 46m 04s
True Declination
0° 00' 00"
Sunlit
Object was in full shadow at epoch
Visualization orbit readout
Latitude
Unknown
Longitude
Unknown
Altitude
Unknown
Speed
Unknown
Apparent Right ascension
Unknown
Apparent Declination
Unknown
Sunlit
N/A
Visualization observer readout
Local Sidereal Time
11:18:22
Azimuth
Unknown
Elevation
Unknown
Doppler factor
Unknown
Orbital elements
Apogee altitude
638.809 km
Perigee altitude
636.223 km
Semi-major axis
7,015.653 km
Eccentricity
0.00018
Inclination
97.9132°
RAAN
341.52°
Arg. of periapsis
139.1517°
True anomaly
220.96925°
Mean anomaly
220.9831°
Eccentric anomaly
220.97618°
Mean motion
3.69352 °/min
Orbital period
97.47 mins
BSTAR
0.00011757
Loading maneuver chart data...
Computing Atmospheric mass density...
Loading historical data...
Loading historical data...
Loading historical data...
Loading historical data...
Loading historical data...
Loading historical data...
Loading historical data...

Documentation

Showing up to 5 results
|